Georgetown, DE

1:23 AM EST on February 12, 2016 (GMT -0500)
Sussex County

Weather History for KGED - November, 2013

Change the Weather History Date:

Monday, November 11, 2013

  Actual Average Record
Temperature  
Mean Temperature 46 °F 50 °F  
Max Temperature 58 °F 60 °F 78 °F (2006)
Min Temperature 34 °F 40 °F 21 °F (1973)
Degree Days  
Heating Degree Days 19 15  
Month to date heating degree days 149 151  
Since 1 July heating degree days 392 437  
Cooling Degree Days 0 0  
Month to date cooling degree days 5 0  
Year to date cooling degree days 1396 1194  
Moisture  
Dew Point 32 °F    
Average Humidity 54    
Maximum Humidity 75    
Minimum Humidity 33    
Precipitation  
Precipitation 0.00 in 0.11 in 1.05 in (1979)
Month to date precipitation 0.23 1.31  
Year to date precipitation 47.64 38.43  
Sea Level Pressure  
Sea Level Pressure 30.20 in    
Wind  
Wind Speed 7 mph (SW)    
Max Wind Speed 14 mph    
Max Gust Speed 22 mph    
Visibility 10 miles    
Events      
T = Trace of Precipitation, MM = Missing Value Source: NWS Daily Summary

Daily Weather History Graph

Daily Weather History Graph

Search for Another Location

Airport or City:

Trip Planner

Search our weather history database for the weather conditions in past years. The results will help you decide how hot, cold, wet, or windy it might be!

Date:

Astronomy

Nov. 11, 2013 Rise Set
Actual Time 6:39 AM EST 4:51 PM EST
Civil Twilight 6:11 AM EST 5:19 PM EST
Nautical Twilight 5:39 AM EST 5:51 PM EST
Astronomical Twilight 5:08 AM EST 6:22 PM EST
Moon 1:27 PM EST (11/11) 12:25 AM EST (11/11)
Length of Visible Light 11h 07m
Length of Day
10h 11m
Waxing Gibbous, 66% of the Moon is Illuminated
Nov 11
Waxing Gibbous
Nov 17
Full
Nov 25
Last Quarter
Dec 2
New
Dec 9
First Quarter

Hourly Weather History & Observations

Time (EST) Temp. Windchill Dew Point Humidity Pressure Visibility Wind Dir Wind Speed Gust Speed Precip Events Conditions
12:54 AM 46.0 °F 43.1 °F 28.0 °F 50% 30.21 in 10.0 mi West 5.8 mph - N/A   Clear
1:54 AM 44.1 °F 40.8 °F 28.0 °F 53% 30.22 in 10.0 mi West 5.8 mph - N/A   Clear
2:54 AM 43.0 °F - 28.0 °F 56% 30.23 in 10.0 mi Calm Calm - N/A   Clear
3:54 AM 42.1 °F - 28.9 °F 60% 30.23 in 10.0 mi Calm Calm - N/A   Clear
4:54 AM 37.9 °F - 28.9 °F 70% 30.25 in 10.0 mi Calm Calm - N/A   Clear
5:54 AM 36.0 °F 32.1 °F 28.9 °F 76% 30.26 in 10.0 mi SW 4.6 mph - N/A   Clear
6:54 AM 37.9 °F - 28.9 °F 70% 30.28 in 10.0 mi Calm Calm - N/A   Clear
7:54 AM 42.1 °F 39.2 °F 30.9 °F 65% 30.30 in 10.0 mi WNW 4.6 mph - N/A   Clear
8:54 AM 46.9 °F - 32.0 °F 56% 30.31 in 10.0 mi West 4.6 mph - N/A   Clear
9:54 AM 51.1 °F - 28.9 °F 43% 30.31 in 10.0 mi Variable 4.6 mph - N/A   Clear
10:54 AM 53.1 °F - 30.0 °F 41% 30.29 in 10.0 mi WNW 5.8 mph - N/A   Clear
11:54 AM 54.0 °F - 30.0 °F 40% 30.25 in 10.0 mi Variable 5.8 mph - N/A   Clear
12:54 PM 55.9 °F - 30.0 °F 37% 30.22 in 10.0 mi WSW 10.4 mph 21.9 mph N/A   Clear
1:54 PM 57.0 °F - 28.9 °F 34% 30.19 in 10.0 mi WSW 10.4 mph - N/A   Clear
2:54 PM 57.0 °F - 28.9 °F 34% 30.17 in 10.0 mi SW 9.2 mph - N/A   Clear
3:54 PM 55.0 °F - 32.0 °F 42% 30.17 in 10.0 mi WSW 9.2 mph - N/A   Clear
4:54 PM 50.0 °F - 34.0 °F 54% 30.17 in 10.0 mi SW 8.1 mph - N/A   Clear
5:54 PM 48.0 °F - 34.0 °F 58% 30.16 in 10.0 mi SSW 8.1 mph - N/A   Mostly Cloudy
6:54 PM 48.0 °F - 34.0 °F 58% 30.15 in 10.0 mi SSW 9.2 mph - N/A   Overcast
7:54 PM 48.0 °F - 35.1 °F 61% 30.14 in 10.0 mi SSW 10.4 mph - N/A   Overcast
8:54 PM 48.9 °F - 37.9 °F 66% 30.11 in 10.0 mi SSW 11.5 mph - N/A   Mostly Cloudy
9:54 PM 48.9 °F - 39.0 °F 69% 30.10 in 10.0 mi SSW 11.5 mph - N/A   Mostly Cloudy
10:54 PM 48.9 °F - 39.9 °F 71% 30.08 in 10.0 mi SSW 10.4 mph - N/A   Scattered Clouds
11:54 PM 48.0 °F - 39.9 °F 74% 30.06 in 10.0 mi SSW 10.4 mph - N/A   Clear